Location: A�t Bou Chrif
(32.7193°N, 5.2385°W)
Time: 04:16:19
(UTC+00:00)

Cosmos 1934 Rocket - Pass Details

Date: 08 August 2020
Orbit: 937 x 1000 km, 83.0° (Epoch: 20 September)

Event Time Altitude Azimuth Distance (km) Brightness Sun altitude
Exits shadow 21:16:21 33° 179° (S) 1,599 4.8 -23.5°
Maximum altitude 21:19:25 83° 94° (E) 1,009 3.9 -24.0°
Drops below altitude 10° 21:25:48 10° 8° (N) 2,775 6.8 -25.1°
Sets 21:28:21 0° 7° (N) 3,726 7.5 -25.5°
